West Chicago, IL

1:11 AM CDT on September 29, 2016 (GMT -0500)
Du Page

Weather History for KDPA - July, 2013

Change the Weather History Date:

Sunday, July 14, 2013

  Actual Average Record
Temperature  
Mean Temperature 78 °F 74 °F  
Max Temperature 89 °F 86 °F 91 °F (2005)
Min Temperature 66 °F 63 °F 52 °F (2002)
Degree Days  
Heating Degree Days 0 0  
Month to date heating degree days 5 0  
Since 1 June heating degree days 59 36  
Since 1 July heating degree days 5 0  
Cooling Degree Days 13 9  
Month to date cooling degree days 93 126  
Year to date cooling degree days 309 350  
Since 1 June cooling degree days 232 304  
Growing Degree Days 26 (Base 50)    
Moisture  
Dew Point 66 °F    
Average Humidity 67    
Maximum Humidity 87    
Minimum Humidity 51    
Precipitation  
Precipitation 0.00 in 0.15 in 0.23 in (2014)
Month to date precipitation 2.11 1.46  
Year to date precipitation 22.30 18.37  
Sea Level Pressure  
Sea Level Pressure 30.18 in    
Wind  
Wind Speed 6 mph (East)    
Max Wind Speed 10 mph    
Max Gust Speed 14 mph    
Visibility 10 miles    
Events      
T = Trace of Precipitation, MM = Missing Value Source: NWS Daily Summary

Daily Weather History Graph

Daily Weather History Graph

Search for Another Location

Airport or City:

Trip Planner

Search our weather history database for the weather conditions in past years. The results will help you decide how hot, cold, wet, or windy it might be!

Date:

Astronomy

Jul. 14, 2013 Rise Set
Actual Time 5:30 AM CDT 8:26 PM CDT
Civil Twilight 4:57 AM CDT 9:00 PM CDT
Nautical Twilight 4:14 AM CDT 9:42 PM CDT
Astronomical Twilight 3:25 AM CDT 10:31 PM CDT
Moon 11:54 AM CDT (7/14) 11:31 PM CDT (7/14)
Length of Visible Light 16h 03m
Length of Day
14h 56m
Waxing Crescent, 35% of the Moon is Illuminated
Jul 14
Waxing Crescent
Jul 15
First Quarter
Jul 22
Full
Jul 29
Last Quarter
Aug 6
New

Hourly Weather History & Observations

Time (CDT) Temp. Heat Index Dew Point Humidity Pressure Visibility Wind Dir Wind Speed Gust Speed Precip Events Conditions
12:52 AM 69.1 °F - 61.0 °F 75% 30.14 in 10.0 mi East 4.6 mph - N/A   Clear
1:52 AM 68.0 °F - 61.0 °F 78% 30.15 in 10.0 mi Calm Calm - N/A   Partly Cloudy
2:52 AM 66.9 °F - 62.1 °F 84% 30.16 in 10.0 mi NNE 4.6 mph - N/A   Mostly Cloudy
3:52 AM 69.1 °F - 64.0 °F 84% 30.16 in 10.0 mi East 4.6 mph - N/A   Clear
4:52 AM 69.1 °F - 64.9 °F 87% 30.17 in 10.0 mi East 5.8 mph - N/A   Clear
5:52 AM 70.0 °F - 66.0 °F 87% 30.17 in 9.0 mi ESE 6.9 mph - N/A   Clear
6:52 AM 72.0 °F - 66.0 °F 81% 30.17 in 10.0 mi East 6.9 mph - N/A   Clear
7:52 AM 75.0 °F - 66.9 °F 76% 30.17 in 10.0 mi ESE 8.1 mph - N/A   Clear
8:52 AM 77.0 °F - 66.9 °F 71% 30.18 in 10.0 mi East 6.9 mph - N/A   Clear
9:52 AM 80.1 °F 82.3 °F 66.9 °F 64% 30.20 in 10.0 mi East 4.6 mph - N/A   Clear
10:52 AM 82.0 °F 84.9 °F 68.0 °F 62% 30.20 in 10.0 mi East 5.8 mph - N/A   Scattered Clouds
11:52 AM 84.9 °F 88.8 °F 69.1 °F 59% 30.20 in 10.0 mi NE 5.8 mph - N/A   Scattered Clouds
12:52 PM 84.0 °F 86.5 °F 66.9 °F 56% 30.20 in 10.0 mi East 5.8 mph - N/A   Mostly Cloudy
1:52 PM 84.9 °F 87.1 °F 66.0 °F 53% 30.19 in 10.0 mi Calm Calm - N/A   Mostly Cloudy
2:52 PM 84.9 °F 86.6 °F 64.9 °F 51% 30.19 in 10.0 mi East 6.9 mph - N/A   Scattered Clouds
3:52 PM 84.9 °F 87.6 °F 66.9 °F 55% 30.18 in 10.0 mi ESE 5.8 mph - N/A   Mostly Cloudy
4:52 PM 87.1 °F 89.9 °F 66.9 °F 51% 30.17 in 10.0 mi East 9.2 mph - N/A   Partly Cloudy
5:52 PM 86.0 °F 88.2 °F 66.0 °F 51% 30.16 in 10.0 mi East 8.1 mph - N/A   Clear
6:52 PM 84.9 °F 87.6 °F 66.9 °F 55% 30.16 in 10.0 mi ESE 8.1 mph - N/A   Clear
7:28 PM 84.2 °F 86.6 °F 66.2 °F 55% 30.18 in 10.0 mi ESE 4.6 mph - N/A   Partly Cloudy
7:52 PM 82.9 °F 85.0 °F 66.0 °F 56% 30.17 in 10.0 mi ESE 6.9 mph - N/A   Clear
8:52 PM 80.1 °F 82.3 °F 66.9 °F 64% 30.18 in 10.0 mi ESE 5.8 mph - N/A   Clear
9:52 PM 77.0 °F - 66.9 °F 71% 30.20 in 10.0 mi ENE 4.6 mph - N/A   Clear
10:52 PM 73.9 °F - 66.9 °F 79% 30.21 in 10.0 mi NNE 3.5 mph - N/A   Clear
11:52 PM 73.0 °F - 66.9 °F 81% 30.21 in 10.0 mi North 4.6 mph - N/A   Clear